CW5619 Weather Reports


Display with metric or nautical units.
time (UTC)temp
F
wind
direction
speed
MPH
gust
MPH
rain 1hr
in
rain 24hr
in
rain mn
in
humidity
%
barometer
mb
20260503213903 92 155 3.0 12.0 0.00 0.00 0.00 18 1009.5
20260503213404 91 113 3.0 12.0 0.00 0.00 0.00 18 1009.6
20260503212903 91 110 3.0 12.0 0.00 0.00 0.00 19 1009.8
20260503212403 91 99 5.0 12.0 0.00 0.00 0.00 19 1009.8
20260503211404 89 110 3.0 8.0 0.00 0.00 0.00 21 1010.2
20260503210904 88 127 2.0 9.0 0.00 0.00 0.00 21 1010.3
20260503210403 88 138 3.0 9.0 0.00 0.00 0.00 21 1010.3
20260503205904 88 95 3.0 8.0 0.00 0.00 0.00 22 1010.5
20260503204904 88 214 3.0 13.0 0.00 0.00 0.00 22 1010.6
20260503204404 87 157 2.0 13.0 0.00 0.00 0.00 21 1010.5
20260503203904 88 187 4.0 13.0 0.00 0.00 0.00 21 1010.6
20260503203404 88 126 5.0 10.0 0.00 0.00 0.00 21 1010.6
20260503201903 87 204 5.0 9.0 0.00 0.00 0.00 21 1010.8
20260503200904 86 169 3.0 7.0 0.00 0.00 0.00 23 1011.0
20260503195904 86 181 2.0 12.0 0.00 0.00 0.00 23 1011.3
20260503194904 86 97 3.0 9.0 0.00 0.00 0.00 24 1011.4
20260503194404 86 99 3.0 9.0 0.00 0.00 0.00 25 1011.6
20260503193904 85 147 2.0 10.0 0.00 0.00 0.00 25 1011.6
20260503193404 85 103 3.0 10.0 0.00 0.00 0.00 26 1011.7
20260503192903 85 223 4.0 9.0 0.00 0.00 0.00 25 1011.8
20260503192404 85 163 2.0 8.0 0.00 0.00 0.00 25 1011.9
20260503191903 85 184 3.0 9.0 0.00 0.00 0.00 27 1011.9
20260503191404 84 116 3.0 10.0 0.00 0.00 0.00 28 1012.0
20260503190904 84 106 2.0 10.0 0.00 0.00 0.00 28 1011.9
20260503190403 84 105 3.0 9.0 0.00 0.00 0.00 28 1012.0
20260503185904 84 127 2.0 8.0 0.00 0.00 0.00 28 1012.1
20260503185404 83 102 2.0 8.0 0.00 0.00 0.00 28 1012.1
20260503184904 83 125 3.0 8.0 0.00 0.00 0.00 28 1012.2
20260503184404 83 118 3.0 12.0 0.00 0.00 0.00 28 1012.3
20260503183904 83 134 3.0 12.0 0.00 0.00 0.00 28 1012.3
20260503183403 83 166 3.0 12.0 0.00 0.00 0.00 28 1012.4
20260503182904 83 116 3.0 9.0 0.00 0.00 0.00 28 1012.5
20260503182403 82 119 3.0 10.0 0.00 0.00 0.00 28 1012.5
20260503181903 83 94 3.0 10.0 0.00 0.00 0.00 28 1012.6
20260503181404 82 116 2.0 12.0 0.00 0.00 0.00 28 1012.7
20260503180904 82 120 3.0 12.0 0.00 0.00 0.00 28 1012.7
20260503180403 82 129 2.0 7.0 0.00 0.00 0.00 28 1012.7
20260503175903 82 190 2.0 7.0 0.00 0.00 0.00 28 1013.0
20260503175403 82 162 2.0 10.0 0.00 0.00 0.00 29 1013.1
20260503174404 82 108 5.0 10.0 0.00 0.00 0.00 28 1013.2
20260503173904 82 88 1.0 9.0 0.00 0.00 0.00 29 1013.3
20260503173404 82 153 3.0 9.0 0.00 0.00 0.00 29 1013.4
20260503172904 82 104 2.0 9.0 0.00 0.00 0.00 29 1013.4
20260503172404 81 175 4.0 9.0 0.00 0.00 0.00 29 1013.3
20260503171403 81 165 4.0 9.0 0.00 0.00 0.00 29 1013.4
20260503170903 82 71 3.0 9.0 0.00 0.00 0.00 29 1013.7
20260503170403 82 141 3.0 9.0 0.00 0.00 0.00 29 1013.6
20260503150904 77 111 1.0 7.0 0.00 0.00 0.00 34 1013.4
20260503150403 76 189 2.0 7.0 0.00 0.00 0.00 34 1013.6
20260503131403 73 150 1.0 3.0 0.00 0.00 0.00 36 1012.8
20260503130904 73 107 0.0 3.0 0.00 0.00 0.00 36 1012.8
20260503130403 73 181 1.0 3.0 0.00 0.00 0.00 36 1012.9
20260503110404 75 136 2.0 6.0 0.00 0.00 0.00 34 1012.4
20260503090404 76 127 2.0 9.0 0.00 0.00 0.00 31 1012.2
20260503081404 77 190 1.0 7.0 0.00 0.00 0.00 30 1012.3
20260503080903 77 114 2.0 7.0 0.00 0.00 0.00 30 1012.4
20260503080403 77 152 1.0 8.0 0.00 0.00 0.00 30 1012.5
20260503072404 78 208 2.0 6.0 0.00 0.00 0.00 29 1012.4
20260503071903 78 108 2.0 8.0 0.00 0.00 0.00 29 1012.5
20260503071403 78 107 2.0 8.0 0.00 0.00 0.00 29 1012.6
20260503070904 78 158 2.0 6.0 0.00 0.00 0.00 29 1012.6
20260503070403 78 198 2.0 9.0 0.00 0.00 0.00 29 1012.6
20260503054903 80 121 1.0 6.0 0.00 0.00 0.00 26 1011.8
20260503054404 80 124 2.0 6.0 0.00 0.00 0.00 26 1011.7
20260503053404 80 111 2.0 7.0 0.00 0.00 0.00 25 1011.7
20260503052903 81 130 3.0 8.0 0.00 0.00 0.00 25 1011.7
20260503052404 81 106 2.0 8.0 0.00 0.00 0.00 25 1011.7
20260503051904 81 111 3.0 8.0 0.00 0.00 0.00 25 1011.7
20260503051403 81 95 3.0 8.0 0.00 0.00 0.00 25 1011.9
20260503050404 81 128 3.0 10.0 0.00 0.00 0.00 25 1011.6
20260503045904 81 109 5.0 9.0 0.00 0.00 0.00 25 1011.7
20260503045404 81 113 3.0 8.0 0.00 0.00 0.00 25 1011.6
20260503044905 81 130 2.0 7.0 0.00 0.00 0.00 25 1011.6
20260503044403 81 131 2.0 7.0 0.00 0.00 0.00 25 1011.5
20260503043904 81 98 2.0 3.0 0.00 0.00 0.00 24 1011.6
20260503043404 81 125 1.0 3.0 0.00 0.00 0.00 24 1011.5
20260503042903 81 119 2.0 3.0 0.00 0.00 0.00 24 1011.4
20260503042404 81 121 1.0 6.0 0.00 0.00 0.00 24 1011.3
20260503041904 81 116 2.0 6.0 0.00 0.00 0.00 24 1011.2
20260503041404 81 114 1.0 6.0 0.00 0.00 0.00 24 1011.1
20260503040903 81 98 2.0 6.0 0.00 0.00 0.00 24 1011.0
20260503040403 81 118 1.0 7.0 0.00 0.00 0.00 23 1010.9
20260503035903 82 119 1.0 7.0 0.00 0.00 0.00 23 1010.8
20260503034903 82 120 2.0 7.0 0.00 0.00 0.00 23 1010.7
20260503034403 82 135 3.0 7.0 0.00 0.00 0.00 23 1010.8
20260503033903 82 116 3.0 7.0 0.00 0.00 0.00 23 1010.8
20260503033402 82 129 2.0 5.0 0.00 0.00 0.00 23 1010.8
20260503032902 82 112 1.0 6.0 0.00 0.00 0.00 23 1010.8
20260503032403 82 106 2.0 7.0 0.00 0.00 0.00 23 1010.8
20260503031903 83 109 2.0 10.0 0.00 0.00 0.00 22 1010.8
20260503030903 83 119 2.0 9.0 0.00 0.00 0.00 22 1010.7
20260503030402 83 106 5.0 9.0 0.00 0.00 0.00 22 1010.6
20260503025902 83 130 3.0 8.0 0.00 0.00 0.00 21 1010.5
20260503025402 83 86 2.0 6.0 0.00 0.00 0.00 20 1010.5
20260503024902 83 120 1.0 6.0 0.00 0.00 0.00 20 1010.4
20260503024402 84 99 2.0 6.0 0.00 0.00 0.00 20 1010.3
20260503023902 84 82 2.0 7.0 0.00 0.00 0.00 19 1010.3
20260503023402 84 102 2.0 7.0 0.00 0.00 0.00 19 1010.3
20260503022902 84 114 2.0 7.0 0.00 0.00 0.00 19 1010.3
20260503022403 84 123 2.0 3.0 0.00 0.00 0.00 19 1010.4
20260503021902 84 120 1.0 3.0 0.00 0.00 0.00 19 1010.3
20260503021402 84 106 1.0 3.0 0.00 0.00 0.00 19 1010.3
20260503020902 84 53 1.0 3.0 0.00 0.00 0.00 19 1010.2
20260503020402 85 96 1.0 3.0 0.00 0.00 0.00 19 1010.2
20260503015902 85 77 1.0 3.0 0.00 0.00 0.00 19 1010.3
20260503014903 85 59 1.0 3.0 0.00 0.00 0.00 18 1010.4
20260503014403 86 55 1.0 3.0 0.00 0.00 0.00 18 1010.4
20260503013902 86 58 0.0 1.0 0.00 0.00 0.00 18 1010.4
20260503013402 86 74 0.0 3.0 0.00 0.00 0.00 17 1010.4
20260503012902 86 38 0.0 6.0 0.00 0.00 0.00 17 1010.3
20260503012402 86 69 2.0 6.0 0.00 0.00 0.00 17 1010.4
20260503011902 86 212 0.0 3.0 0.00 0.00 0.00 17 1010.5
20260503011402 86 215 1.0 3.0 0.00 0.00 0.00 17 1010.5
20260503010403 87 238 1.0 3.0 0.00 0.00 0.00 17 1010.7
20260503005902 87 116 0.0 1.0 0.00 0.00 0.00 17 1010.7
20260503005402 87 97 0.0 3.0 0.00 0.00 0.00 17 1010.7
20260503004903 87 108 1.0 3.0 0.00 0.00 0.00 16 1010.6
20260503003902 87 16 0.0 7.0 0.00 0.00 0.00 16 1010.5
20260503003403 87 22 1.0 7.0 0.00 0.00 0.00 16 1010.4
20260503002903 87 46 2.0 7.0 0.00 0.00 0.00 16 1010.6
20260503002402 87 62 2.0 3.0 0.00 0.00 0.00 15 1010.5
20260503001902 87 274 1.0 2.0 0.00 0.00 0.00 15 1010.6
20260503001403 87 264 1.0 3.0 0.00 0.00 0.00 15 1010.6
20260503000903 87 78 2.0 3.0 0.00 0.00 0.00 14 1010.7
20260503000403 88 32 2.0 3.0 0.00 0.00 0.00 13 1010.6
20260502235903 88 127 1.0 6.0 0.00 0.00 0.00 15 1010.6
20260502235402 88 162 2.0 6.0 0.00 0.00 0.00 15 1010.6
20260502234903 88 147 1.0 6.0 0.00 0.00 0.00 15 1010.7
20260502234402 88 123 2.0 6.0 0.00 0.00 0.00 15 1010.6
20260502233402 89 209 0.0 3.0 0.00 0.00 0.00 13 1010.5
20260502232402 88 244 2.0 5.0 0.00 0.00 0.00 13 1010.6
20260502231902 88 84 0.0 6.0 0.00 0.00 0.00 13 1010.7
20260502231402 89 114 3.0 6.0 0.00 0.00 0.00 13 1010.7
20260502230903 89 105 1.0 5.0 0.00 0.00 0.00 13 1010.8
20260502225902 89 101 2.0 7.0 0.00 0.00 0.00 13 1011.1
20260502225402 89 351 1.0 7.0 0.00 0.00 0.00 13 1011.1
20260502224902 89 63 2.0 7.0 0.00 0.00 0.00 12 1011.0
20260502224402 90 92 2.0 7.0 0.00 0.00 0.00 12 1011.1
20260502223902 90 182 3.0 8.0 0.00 0.00 0.00 12 1011.1
20260502223402 90 208 4.0 8.0 0.00 0.00 0.00 12 1011.0
20260502222402 91 191 2.0 6.0 0.00 0.00 0.00 12 1011.2
20260502221903 92 212 1.0 7.0 0.00 0.00 0.00 11 1011.2
20260502221403 92 213 2.0 7.0 0.00 0.00 0.00 11 1011.2
20260502220903 90 4 1.0 7.0 0.00 0.00 0.00 11 1011.3
20260502215903 90 62 3.0 8.0 0.00 0.00 0.00 11 1011.6
20260502215402 90 166 2.0 7.0 0.00 0.00 0.00 12 1011.5
20260502214903 89 176 3.0 7.0 0.00 0.00 0.00 12 1011.6
20260502214403 90 213 1.0 6.0 0.00 0.00 0.00 12 1011.8